Regional Weather Roundup
Issued by NWS

Home | Current Version | Previous Version | Graphics & Text | Print | Product List | Glossary On
Versions: 1 2 3 4 5 6 7 8 9 10 11 12 13 14 15 16 17 18 19 20 21 22 23 24 25 26 27 28 29 30 31 32 33 34 35 36 37 38 39 40 41 42 43 44 45 46 47 48 49 50
534
ASUS43 KFSD 231710
RWRSD

WEATHER ROUNDUP FOR SOUTH DAKOTA
NATIONAL WEATHER SERVICE SIOUX FALLS SD
1200 PM CDT SAT SEP 23 2017

NOTE: "FAIR" INDICATES FEW OR NO CLOUDS BELOW 12,000 FEET WITH NO
SIGNIFICANT WEATHER AND/OR OBSTRUCTIONS TO VISIBILITY.


SDZ001>005-009-010-012>017-231800-
NORTHWEST AND NORTH CENTRAL SOUTH DAKOTA

CITY           SKY/WX    TMP DP  RH WIND       PRES   REMARKS
BUFFALO          N/A     45  41  86 NE12      30.04F
FAITH            N/A     47  46  97 N18       30.06F
MOBRIDGE       CLOUDY    55  48  77 N14       30.03F
$$

SDZ012>016-024>037-041>051-057-063-072>074-231800-
SOUTHWEST AND SOUTH CENTRAL SOUTH DAKOTA

CITY           SKY/WX    TMP DP  RH WIND       PRES   REMARKS
RAPID CTY ARPT CLOUDY    46  43  87 N16       30.05F
PIERRE         CLOUDY    50  48  93 NE13      30.02F FOG
CUSTER         CLOUDY    48  42  80 E14G23    30.02S
ELLSWORTH AFB  CLOUDY    46  45  96 N14       30.05
PHILIP         CLOUDY    51  46  83 N14       30.03F
PINE RIDGE     CLOUDY    46  45  96 N9        30.04S
SPEARFISH      FAIR      43  43 100 N5        30.07F
WINNER         CLOUDY    53  50  89 N12       30.00F
$$

SDZ004>011-016>023-039-040-231800-
NORTHEAST SOUTH DAKOTA

CITY           SKY/WX    TMP DP  RH WIND       PRES   REMARKS
ABERDEEN       LGT RAIN  53  52  96 NE9       30.03F
WATERTOWN      RAIN      55  54  96 NE10      30.02R FOG
BROOKINGS      CLOUDY    64  58  80 N8        30.00R
SISSETON         N/A     54  53  97 NW9       30.05R
$$

SDZ017-020-022-023-036>040-048>070-231800-
SOUTHEAST SOUTH DAKOTA

CITY           SKY/WX    TMP DP  RH WIND       PRES   REMARKS
SIOUX FALLS    CLOUDY    72  67  84 E6        29.97S
HURON          LGT RAIN  55  55 100 NE12      29.97F
CHAMBERLAIN    CLOUDY    55  55 100 N9        30.00F
MITCHELL       LGT RAIN  56  55  97 N8        29.98F
YANKTON        CLOUDY    63  58  83 N6        29.97S
$$

ABBREVIATIONS USED IN REMARKS
   TC - TEMPERATURE IN CELSIUS
  WCI - WIND CHILL INDEX
   HX - HEAT INDEX
  VSB - VISIBILITY





USA.gov is the U.S. government's official web portal to all federal, state and local government web resources and services.